www.pogodaiklimat.ru

Погода и климат >> Архив погоды >> Великобритания >> Лоссимут


ПОГОДА в Лоссимуте

  • Прогноз погоды в Лоссимуте
  • Монитор погоды в Лоссимуте

АРХИВ ПОГОДЫ в Лоссимуте

Время (UTC), дата Ветер
(напр.,м/с)
 
Видим.   Явления Облачность Т
(С)
Тd
(С)
f
(%)
Тe
(С)
Тes
(С)
Комфортность P
(гПа)
Po
(гПа)
Тmin
(С)
Tmax
(С)
R
(мм)
R24
(мм)
S
(см)
10 16.09 З 10
{14}
50 км в посл. час ливневой дождь 6/6 900 м
[Cu Sc]
+12.6 +8.3 75 +9 +9 1018.7 1017.9
11 16.09 З 9
{14}
50 км 4/4 900 м
[Cu Sc]
+13.1 +7.4 68 +10 +11 1018.6 1017.8
12 16.09 З 9
{13}
40 км {ливн. осадки} 4/4 900 м
[Cu Sc]
+13.3 +7.3 67 +11 +11 1018.8 1017.9 0.0
13 16.09 З 8
{13}
30 км осадки на расстоянии 9/9 800 м
[Cu Sc]
+13.3 +7.0 66 +11 +11 1018.7 1017.8
14 16.09 З 7
{15}
5000 м дождь {морось} 9/9 900 м
[Sc]
+11.6 +9.8 89 +8 +8 1019.0 1018.2
15 16.09 З 9 30 км в посл. час дождь {морось} 9/9 600 м
[Cu Sc]
+11.9 +8.3 79 +8 +8 1018.7 1017.8
16 16.09 З 8 40 км 8/8 700 м
[Cu Sc]
+12.2 +8.7 79 +9 +9 1018.6 1017.8
17 16.09 СЗ 10
{13}
35 км 8/8 750 м
[Cu Sc]
+11.3 +7.7 78 +7 +7 1019.1 1018.3
18 16.09 СЗ 11
{18}
30 км в посл. час ливневой дождь 8/8 750 м
[Cu Sc]
+10.9 +7.0 77 +7 +7 1019.1 1018.2 +14.9 1
19 16.09 З 7
{14}
25 км 4/3 1500 м
[Sc Ci fib]
+10.7 +7.0 78 +7 +7 1019.5 1018.6
20 16.09 З 9
{13}
25 км 5/5 1440 м
[Sc]
+10.9 +5.1 67 +7 +7 1019.9 1019.0
21 16.09 З 7
{16}
25 км 5/5 1500 м
[Sc]
+9.7 +5.5 75 +6 +6 1019.9 1019.1
22 16.09 З 8
{16}
25 км в посл. час ливневой дождь 4/4 1500 м
[Sc Ac trans]
+9.4 +5.4 76 +5 +5 1020.1 1019.2
23 16.09 З 8 25 км в посл. час ливневой дождь 5/5 1020 м
[Cu Sc]
+9.7 +5.6 76 +6 +6 1020.4 1019.5
00 17.09 З 8-14
{14}
25 км {ливн. осадки} 1/1 1200 м
[Sc]
+9.7 +5.1 73 +6 +6 1020.4 1019.6 0.2
01 17.09 З 10
{14}
25 км 3/3 1500 м
[Sc]
+9.7 +3.9 67 +5 +5 1020.5 1019.6
02 17.09 З 10
{14}
25 км 4/4 1500 м
[Sc]
+9.6 +4.1 69 +5 +5 1020.6 1019.7
03 17.09 З 10
{16}
25 км 3/3 1350 м
[Sc]
+9.4 +4.2 70 +5 +5 1021.1 1020.3
04 17.09 З 9
{14}
30 км 4/4 1080 м
[Sc]
+9.2 +4.3 71 +5 +5 1021.3 1020.4
05 17.09 З 8
{14}
30 км 4/4 1140 м
[Cu Sc]
+9.3 +5.1 75 +5 +5 1021.5 1020.7
06 17.09 З 8 25 км н/о +9.7 +5.8 77 +6 +6 1022.5 1021.7 +8.9 0.2
07 17.09 З 8 30 км 1/1 750 м
[Cu Sc]
+9.4 +5.5 77 +5 +5 1022.9 1022.0
08 17.09 З 7 30 км 3/1 750 м
[Cu Sc Ac trans]
+10.1 +5.1 71 +6 +7 1023.8 1022.9
09 17.09 СЗ 8 30 км 5/1 800 м
[Cu Sc Ac trans]
+11.1 +5.4 68 +8 +8 1024.4 1023.5
10 17.09 З 8 30 км 5/3 840 м
[Cu Sc Ac trans]
+11.5 +5.7 68 +8 +9 1025.3 1024.5
11 17.09 З 7 40 км 4/3 720 м
[Cu Sc Ci fib]
+12.2 +6.9 70 +9 +11 1025.8 1025.0
12 17.09 З 6 40 км 8/5 900 м
[Cu Sc Ac trans Ci fib]
+13.0 +6.2 63 +11 +12 1026.0 1025.2
13 17.09 З 5 30 км 9/6 900 м
[Cu Sc Cc]
+13.4 +7.1 66 +12 +13 1026.3 1025.4
14 17.09 З 7 40 км в посл. час ливневой дождь 9/5 1020 м
[Cu Sc Ci fib]
+13.0 +6.5 65 +10 +11 1026.5 1025.7
15 17.09 З 7 40 км {ливн. осадки} 9/5 960 м
[Cu Sc Ac trans Ci fib]
+13.2 +6.5 64 +11 +11 1026.8 1025.9
16 17.09 З 7 40 км 9/5 900 м
[Cu Sc Ac trans]
+12.5 +6.3 66 +10 +10 1026.6 1025.8
17 17.09 СЗ 4 40 км слаб. ливневой дождь 9/6 900 м
[Sc diur, vesp Ac trans]
+11.8 +6.6 70 +10 +10 1026.9 1026.0
18 17.09 С 4 40 км в посл. час ливневой дождь 9/6 900 м
[Sc diur, vesp Cc]
+10.6 +5.7 72 +8 +8 1027.2 1026.3 +13.7 0.0
19 17.09 С 3 40 км в посл. час дождь 9/3 1350 м
[Sc Ac As Ci sp]
+10.3 +5.1 70 +9 +9 1027.6 1026.7
20 17.09 СЗ 2 30 км 9/1 1140 м
[Sc Ac As]
+10.3 +5.3 71 +9 +9 1027.9 1027.0
21 17.09 С 2 30 км {дождь} 10/4 1050 м
[Sc Ac As]
+10.0 +5.4 73 +9 +9 1028.3 1027.5
22 17.09 ЮЗ 3 30 км 10/9 1500 м
[Sc Ac As]
+8.3 +6.2 87 +6 +6 1028.2 1027.3
23 17.09 ЮЗ 2 30 км 10/1 900 м
[Sc As op]
+8.4 +6.3 87 +6 +6 1028.2 1027.3
00 18.09 ЮЗ 3 25 км слаб. дождь 10/4 1500 м
[Sc As op]
+8.4 +6.4 87 +6 +6 1028.0 1027.2 0.0
01 18.09 З 3 25 км слаб. дождь 10/9 1140 м
[Sc As op]
+8.5 +6.3 86 +6 +6 1028.0 1027.2
02 18.09 ЮЗ 2 30 км в посл. час дождь 10/3 1200 м
[Sc As op]
+8.3 +6.4 88 +6 +6 1028.0 1027.1
03 18.09 ЮЗ 3 30 км {дождь} 10/0 2000 м
[Ac As]
+8.2 +6.6 90 +5 +5 1027.5 1026.6
04 18.09 ЮЗ 2 25 км слаб. дождь 10/9 1500 м
[Sc Ac As]
+8.1 +6.8 91 +6 +6 1027.4 1026.5
05 18.09 Ю 2 7000 м слаб. морось 10/10 600 м
[Sc]
+8.0 +7.0 93 +6 +6 1027.3 1026.4
06 18.09 ЮВ 3 3000 м дождь {морось} 10/10 240 м
[Sc]
+8.0 +7.5 97 +5 +5 1027.3 1026.4 +7.8 0.6
07 18.09 ЮВ 3 3000 м дождь {морось} 10/10 700 м
[Sc]
+8.1 +7.9 99 +5 +5 1027.2 1026.4
08 18.09 ЮВ 3 3000 м дождь {морось} 10/10 630 м
[Sc]
+8.6 +8.4 99 +6 +6 1027.2 1026.3
09 18.09 ЮВ 4 3000 м дождь {морось} 10/10 90 м
[Sc]
+9.1 +8.8 98 +6 +6 1027.4 1026.5
10 18.09 ЮВ 3 3500 м дождь {морось} 10/10 120 м
[Sc]
+9.9 +9.5 97 +7 +7 1027.1 1026.3
11 18.09 ЮВ 2 3000 м дождь {морось} 10/10 120 м
[St]
+10.9 +10.4 97 +9 +9 1027.2 1026.4
12 18.09 ЮВ 2 2000 м дождь {морось} 10/10 90 м
[St]
+11.0 +10.5 97 +10 +10 1027.4 1026.5 3
13 18.09 ЮВ 2 3000 м дождь {морось} 10/10 90 м
[St]
+11.8 +11.4 97 +11 +11 1027.3 1026.4
14 18.09 В 2 3000 м дождь {морось} 10/10 90 м
[St]
+11.7 +11.1 96 +10 +10 1027.5 1026.7
15 18.09 В 3 3000 м слаб. морось {дождь} 10/10 90 м
[St]
+11.4 +10.9 97 +10 +10 1027.7 1026.8
16 18.09 В 3 4000 м слаб. морось 10/10 90 м
[St]
+11.6 +11.0 96 +10 +10 1027.8 1026.9
17 18.09 В 2 7000 м слаб. морось 9/9 120 м
[St]
+11.7 +11.0 95 +10 +11 1028.0 1027.2
18 18.09 В 2 4000 м слаб. морось {дождь} 10/10 120 м
[St]
+11.6 +11.0 96 +11 +11 1028.2 1027.4 +12.1 5
19 18.09 ЮВ 1 4000 м в посл. час морось 9/9 90 м
[St]
+11.6 +11.1 97 +12 +12 1028.4 1027.5
20 18.09 ЮЗ 1 7000 м дымка 10/10 90 м
[St]
+11.5 +11.1 97 +11 +11 1028.7 1027.8
21 18.09 З 1 500 м туман ?/? +11.6 +11.3 98 +11 +11 1028.8 1027.9
22 18.09 СЗ 1 4000 м в посл. час туман 10/10 60 м
[St]
+11.5 +11.2 98 +12 +12 1028.9 1028.1
23 18.09 З 2 1200 м слаб. морось 10/10 60 м
[St]
+11.4 +11.2 99 +10 +10 1029.0 1028.1
00 19.09 ЮЗ 1 400 м туман 10/3 60 м
[St Ci fib]
+11.3 +11.1 99 +12 +12 1028.9 1028.1 0.2
01 19.09 ЮЗ 1 300 м туман 9/5 540 м
[Sc Ci fib]
+10.7 +10.5 99 +11 +11 1028.7 1027.8
02 19.09 Ю 1 3500 м в посл. час туман 8/8 30 м
[Sc]
+10.7 +10.6 99 +10 +10 1028.5 1027.6
03 19.09 ЮЗ 2 20 км туман поземный ясно +9.0 +8.9 99 +7 +7 1028.2 1027.3
04 19.09 Ю 1 30 км местами туман поземный ясно +9.4 +9.4 100 +9 +9 1027.9 1027.1
05 19.09 ЮВ 2 30 км местами туман поземный 1/1 1260 м
[Sc]
+9.0 +9.0 100 +7 +7 1028.2 1027.3
06 19.09 Ю 2 40 км местами туман поземный 4/1 720 м
[Sc Ci fib]
+8.8 +8.7 99 +7 +7 1028.2 1027.3 +7.8 0.2
07 19.09 ЮЗ 3 50 км 4/3 300 м
[Sc Ci sp]
+10.4 +10.3 99 +8 +8 1028.4 1027.6
08 19.09 Ю 1 50 км 6/4 450 м
[Sc Ci fib]
+12.8 +12.3 97 +13 +14 1028.8 1027.9
09 19.09 ЮЗ 2 50 км 5/3 540 м
[Cu Sc Ci sp]
+14.9 +12.8 87 +15 +16 1028.9 1028.0
10 19.09 З 5 50 км 5/4 500 м
[Cu Sc Ci sp]
+15.7 +13.1 85 +14 +16 1028.7 1027.9
11 19.09 З 5 50 км 5/4 700 м
[Sc Ci sp]
+15.5 +12.2 81 +14 +16 1028.6 1027.8
12 19.09 З 4 50 км 5/3 800 м
[Cu Sc Ci fib]
+16.8 +12.4 75 +16 +19 1028.3 1027.5
13 19.09 З 4 50 км 5/3 800 м
[Cu Sc Ci sp]
+17.3 +12.3 72 +17 +20 1028.0 1027.1
14 19.09 З 4 60 км 6/1 900 м
[Cu hum Ci fib]
+17.8 +12.6 72 +18 +20 1027.5 1026.6
15 19.09 З 5 60 км 6/1 900 м
[Cu Sc Ci sp]
+18.1 +12.7 71 +18 +20 1027.3 1026.5
16 19.09 С 3 50 км 6/3 900 м
[Cu Sc Ci sp]
+15.9 +12.5 80 +16 +17 1027.3 1026.4
17 19.09 С 2 70 км 6/1 1200 м
[Sc Ci fib]
+15.3 +12.1 81 +15 +16 1027.3 1026.5
18 19.09 СЗ 1 70 км 5/1 1200 м
[Sc Ci fib]
+15.1 +11.6 80 +16 +16 1027.3 1026.4 +18.3
19 19.09 ЮВ 2 >70 км 4/0
[Ci fib]
+13.2 +11.4 89 +12 +12 1027.6 1026.7
20 19.09 ЮЗ 2 50 км 1/0
[Ci fib]
+10.2 +8.8 91 +9 +9 1027.6 1026.7
21 19.09 ЮЗ 1 5000 м туман на расстоянии 1/0
[Ci fib]
+9.8 +9.2 96 +9 +9 1027.7 1026.8
22 19.09 ЮВ 2 20 км местами туман поземный 3/0
[Ci fib]
+8.9 +8.4 97 +7 +7 1027.8 1026.9
23 19.09 ЮЗ 2 40 км 4/0
[Ci fib]
+9.1 +8.5 96 +7 +7 1027.5 1026.6
00 20.09 Ю 1 25 км местами туман поземный 4/0
[Ci fib]
+7.9 +7.5 97 +7 +7 1027.1 1026.2
01 20.09 Ю 2 30 км местами туман поземный 3/0
[Ci fib]
+7.5 +7.1 97 +6 +6 1026.7 1025.9
02 20.09 З 2 25 км местами туман поземный 1/0
[Ci fib]
+5.5 +5.1 97 +3 +3 1026.4 1025.5
03 20.09 ЮЗ 1 30 км ясно +4.5 +4.0 97 +3 +3 1026.1 1025.3
04 20.09 Ю 1 30 км ясно +5.0 +4.6 97 +5 +5 1025.8 1024.9
05 20.09 Ю 2 40 км 3/0
[Ci fib]
+4.3 +3.9 97 +2 +2 1025.7 1024.8
06 20.09 ЮВ 1 40 км 3/0
[Ci fib]
+4.9 +4.6 98 +3 +3 1025.4 1024.5 +3.4 0.2
07 20.09 Ю 1 70 км 1/0
[Ci fib]
+5.1 +4.6 97 +5 +5 1025.3 1024.5
08 20.09 ЮЗ 1 70 км 1/0
[Ci fib]
+8.7 +7.7 93 +9 +10 1025.4 1024.5
09 20.09 З 1 70 км 1/0
[Ci fib]
+11.8 +8.6 81 +13 +16 1025.1 1024.2
10 20.09 В 1 >70 км 1/0
[Ci fib]
+14.8 +10.4 75 +16 +21 1024.5 1023.6
11 20.09 С 2 >70 км 3/0
[Ci fib]
+14.9 +9.6 71 +15 +20 1024.0 1023.1
12 20.09 СВ 2 >70 км 3/0
[Ci fib]
+16.5 +9.7 64 +17 +22 1023.3 1022.5
13 20.09 СВ 3 >70 км 1/0
[Ci fib]
+16.0 +10.4 69 +16 +21 1022.6 1021.8
14 20.09 СВ 3 70 км 1/0
[Ci fib]
+15.9 +12.3 79 +15 +19 1021.8 1021.0
15 20.09 СВ 3 70 км 1/0
[Ci fib]
+15.7 +13.2 85 +15 +18 1020.8 1019.9
16 20.09 СВ 2 60 км 1/0
[Ci fib]
+16.1 +13.7 86 +16 +18 1020.0 1019.2
17 20.09 С 2 50 км 1/0
[Ci fib]
+16.1 +12.8 81 +16 +17 1019.5 1018.6
18 20.09 СЗ 2 50 км 1/0
[Ci fib]
+14.0 +12.0 88 +14 +14 1019.2 1018.3 +17.4
19 20.09 СЗ 1 60 км местами туман поземный 1/0
[Ci fib]
+12.6 +11.8 95 +13 +13 1018.9 1018.0
20 20.09 ЮЗ 1 60 км 1/0
[Ci fib]
+11.5 +10.8 95 +12 +12 1018.8 1018.0
21 20.09 ЮЗ 2 40 км 1/0
[Ci fib]
+8.6 +7.9 95 +7 +7 1018.9 1018.0
22 20.09 Ю 1 40 км местами туман поземный 1/0
[Ci fib]
+9.4 +9.2 99 +10 +10 1018.6 1017.7
23 20.09 ЮВ 3 50 км ясно +11.4 +8.2 81 +10 +10 1018.0 1017.2
00 21.09 ЮВ 4 50 км ясно +13.7 +8.4 70 +12 +12 1017.3 1016.5
01 21.09 Ю 2 50 км ясно +8.8 +6.8 87 +7 +7 1017.1 1016.2
02 21.09 ЮЗ 1 50 км ясно +7.0 +4.4 84 +7 +7 1016.4 1015.5
03 21.09 ЮВ 1 50 км ясно +8.1 +6.0 87 +7 +7 1015.9 1015.1
04 21.09 ЮЗ 1 50 км ясно +10.5 +7.8 83 +10 +10 1015.1 1014.3
05 21.09 ЮВ 6 50 км ясно +13.7 +9.4 75 +12 +12 1014.6 1013.8
06 21.09 ЮВ 6 50 км ясно +13.0 +9.2 78 +11 +11 1014.5 1013.6 +6.9
07 21.09 ЮВ 6 45 км 3/1 270 м
[St Ci fib]
+12.6 +9.4 81 +10 +10 1014.3 1013.5
08 21.09 ЮВ 5 45 км 3/1 270 м
[St Ac trans Ci fib]
+14.4 +10.1 75 +13 +13 1014.0 1013.2
09 21.09 ЮВ 8 40 км 1/1 270 м
[St Ci fib]
+15.9 +10.5 70 +14 +15 1013.6 1012.8
10 21.09 ЮВ 8 35 км 1/1 360 м
[Cu hum]
+17.5 +10.4 63 +16 +17 1013.6 1012.8
11 21.09 В 7 35 км 1/1 450 м
[Cu hum Ci fib]
+18.4 +10.1 58 +18 +19 1012.7 1011.9
12 21.09 ЮВ 9
{13}
35 км 1/1 600 м
[Cu hum Ci fib]
+19.5 +11.4 59 +20 +20 1012.0 1011.2
13 21.09 ЮВ 10
{15}
35 км 1/1 660 м
[Cu hum Ci fib]
+20.3 +10.0 52 +21 +21 комфорт 1011.4 1010.6
14 21.09 Ю 9
{15}
35 км 1/1 750 м
[Cu hum Ci fib]
+20.8 +9.1 47 +22 +22 комфорт 1010.7 1009.8
15 21.09 ЮВ 10-15
{17}
35 км 1/0
[Ci fib]
+20.7 +8.8 46 +21 +22 комфорт 1009.8 1009.0
16 21.09 Ю 6
{15}
35 км 1/0
[Ci fib]
+19.9 +9.4 51 +21 +21 комфорт 1010.0 1009.2
17 21.09 ЮВ 10
{15}
35 км 1/1 750 м
[Cu hum Ci fib]
+19.0 +8.3 50 +19 +19 1009.1 1008.3
18 21.09 ЮВ 7
{13}
35 км 1/0
[Ac trans Ci fib]
+17.2 +8.2 55 +16 +16 1009.2 1008.4 +20.9
19 21.09 В 5 40 км 1/1 600 м
[Sc Ci fib]
+15.8 +8.1 60 +15 +15 1009.3 1008.5
20 21.09 ЮВ 4 40 км 1/1 600 м
[Sc Ci fib]
+14.9 +8.3 65 +14 +14 1008.8 1008.0
21 21.09 ЮВ 7 40 км 1/1 600 м
[Sc Ci fib]
+14.4 +8.3 67 +12 +12 1007.8 1007.0
22 21.09 В 2 40 км 1/1 600 м
[Sc Ci fib]
+13.8 +7.2 64 +14 +14 1008.2 1007.3
23 21.09 В 6 40 км 1/1 600 м
[Sc Ci fib]
+13.7 +7.4 66 +12 +12 1007.7 1006.9
00 22.09 В 5 35 км 1/0
[Ci fib]
+12.7 +8.4 75 +11 +11 1007.4 1006.5
01 22.09 В 4 30 км 1/0
[Ci fib]
+12.5 +9.6 82 +11 +11 1006.7 1005.9
02 22.09 В 5 25 км 3/0
[Ci fib]
+12.1 +9.8 86 +10 +10 1006.1 1005.3
03 22.09 В 5 25 км 3/0
[Ci fib]
+11.5 +9.4 87 +9 +9 1005.6 1004.7
04 22.09 В 5 25 км 3/0
[Ci fib]
+11.4 +9.4 88 +9 +9 1005.3 1004.5
05 22.09 ЮВ 4 25 км 3/1 540 м
[Sc Ci fib]
+11.2 +9.2 87 +9 +9 1005.0 1004.1
06 22.09 ЮВ 6 22 км 6/1 540 м
[Sc Ci fib]
+11.6 +9.8 89 +9 +9 1004.5 1003.7 +11.2
07 22.09 В 4 45 км 9/0
[Ac lent Ci fib]
+12.3 +10.3 88 +10 +10 1004.7 1003.9
08 22.09 В 4 45 км 8/1 1500 м
[Cu hum Ac lent Ci fib]
+13.3 +10.8 85 +12 +12 1004.6 1003.7
09 22.09 ЮВ 5 40 км 6/0
[Ac lent Ci sp]
+15.7 +11.5 76 +15 +15 1004.4 1003.6
10 22.09 ЮВ 5 40 км 6/0
[Ac lent Cc]
+17.1 +11.3 69 +16 +18 1004.2 1003.4
11 22.09 ЮВ 7 40 км 6/0
[Ac cast Cc]
+18.5 +11.7 65 +18 +19 1003.9 1003.1
12 22.09 ЮВ 5 40 км 5/0
[Ac cast Ci sp]
+19.6 +12.6 64 +21 +23 комфорт 1003.7 1002.8
13 22.09 В 6 30 км 4/0
[Ac lent Ci sp]
+17.8 +13.4 75 +17 +19 1003.3 1002.5
14 22.09 В 5 30 км 4/0
[Ac As Ci sp]
+17.4 +13.8 79 +17 +19 1003.0 1002.1
15 22.09 В 5 20 км 4/1 1500 м
[Cu hum Ac trans Ci fib]
+17.1 +13.2 78 +16 +18 1002.9 1002.0
16 22.09 В 5 30 км 6/0
[Ac As Cs]
+15.6 +13.1 85 +14 +15 1002.6 1001.8
17 22.09 В 5 30 км 8/0
[Ac As Ci fib]
+15.2 +12.9 86 +14 +14 1002.4 1001.6
18 22.09 В 6 35 км 8/0
[Ac As Ci sp]
+16.0 +13.5 85 +15 +15 1002.3 1001.4 +20.1
19 22.09 В 4 15 км 9/0
[Ac cast]
+15.5 +13.2 86 +14 +14 1002.5 1001.7
20 22.09 ЮВ 5 15 км 9/0
[Ac cast Ci sp]
+15.3 +12.8 85 +14 +14 1002.6 1001.8
21 22.09 СВ 2 12 км 9/0
[Ac As Ci sp]
+14.3 +12.6 90 +14 +14 1002.6 1001.8
22 22.09 В 3 12 км 9/0
[Ac As Ci sp]
+14.5 +12.6 88 +14 +14 1003.1 1002.3
23 22.09 В 5 12 км 9/0
[Ac cast]
+14.4 +12.6 89 +13 +13 1003.0 1002.2
00 23.09 В 2 12 км 9/0
[Ac cast]
+13.9 +12.3 90 +14 +14 1002.8 1001.9
01 23.09 В 4 15 км 10/0
[Ac cast Cs]
+14.1 +12.4 89 +13 +13 1003.0 1002.2
02 23.09 В 4 15 км 10/1 240 м
[St Ac As Cs]
+14.3 +12.6 90 +13 +13 1002.8 1001.9
03 23.09 В 5 12 км 10/1 330 м
[St Ac As]
+14.4 +13.0 91 +13 +13 1002.7 1001.8
04 23.09 В 3 10 км 10/9 210 м
[St Ac As]
+14.4 +13.2 92 +13 +13 1002.5 1001.6
05 23.09 В 4 6000 м дождь 10/5 240 м
[Sc Ac As]
+14.2 +13.2 94 +13 +13 1002.2 1001.4
06 23.09 В 5 4000 м в посл. час дождь 9/4 240 м
[Sc Ac As]
+13.7 +13.1 96 +12 +12 1002.2 1001.3 +13.7 0.2
07 23.09 В 3 4000 м слаб. морось 10/6 240 м
[Sc Ac trans]
+13.8 +13.3 97 +13 +13 1002.6 1001.7
08 23.09 ЮВ 3 15 км слаб. дождь {морось} 9/6 240 м
[Sc Ac trans]
+14.4 +13.9 97 +14 +14 1002.9 1002.0
09 23.09 В 3 25 км в посл. час дождь {морось} 8/5 240 м
[Sc Ac trans]
+15.5 +14.7 95 +15 +16 1002.7 1001.9
10 23.09 Ю 3 35 км 8/6 840 м
[Cu Sc Ac trans]
+17.2 +14.7 85 +17 +18 1002.9 1002.0

 

Местоположение метеостанции Лоссимут (Великобритания): широта 57.72 долгота -3.32 высота над уровнем моря 6 м.

В архиве по умолчанию представлена погода в Лоссимуте за последнюю неделю. Архивные данные за месяц целиком и за предыдущие месяцы, начиная с января 2011 года, Вы можете получить, выбрав интересующий диапазон дат из раскрывающегося списка и нажав кнопку "Ввод!".


*Определитесь, кто Вы:
робот инопланетянин человек

Внимание! Время в таблицах - всемирное. Для получения местного времени необходимо прибавить поправку, которая равна 0 ч.

Смотрите также архив погоды в соседних городах и на ближайших метеорологических станциях:

Погода в Кинлоссе (Великобритания) (17 км)
Погода в Тейн-Рендже (Великобритания) (40 км)
Погода на Авморе (Великобритания) (65 км)
Погода на Кайрнгорме (Великобритания) (69 км)
Погода в Абойне (Великобритания) (77 км)
Погода в Уике (Великобритания) (82 км)
Погода в Абердине (Великобритания) (88 км)
Погода на Алтнахарре (Великобритания) (90 км)
Погода на Озере Гласкарнок (Великобритания) (93 км)
Погода на Кэрнуэлле (Великобритания) (94 км)

Пояснения к столбцам:

Ветер - указаны скорость ветра в м/с - средняя за 10 мин, порывы в срок и между сроками (в фигурных скобках) и направление, откуда дует ветер: С - северный, СВ - северо-восточный, В - восточный, ЮВ - юго-восточный, Ю - южный, ЮЗ - юго-западный, З - западный, СЗ - северо-западный.
Видимость - горизонтальная дальность видимости в метрах или километрах. При видимости от 1 до 10 км при отсутствии осадков обычно наблюдается дымка, при ухудшении видимости до 1 км и менее - туман. В сухую погоду видимость может ухудшаться дымом, пылью или мглою.
Явления - указаны атмосферные явления, наблюдавшиеся в срок или в последний час перед сроком; фигурными скобками обозначены явления, наблюдавшиеся между сроками (за 1-3 часа до срока); квадратными скобками обозначены град или гололедные отложения с указанием их диаметра в мм.
Облачность - указаны через наклонную черту общая и нижняя облачность в баллах и высота нижней границы облаков в метрах; квадратными скобками обозначены формы облаков: Ci - перистые, Cs - перисто-слоистые, Cc - перисто-кучевые, Ac - высококучевые, As - высокослоистые, Sc - слоисто-кучевые, Ns - слоисто-дождевые, Cu - кучевые, Cb - кучево-дождевые. Подробнее классификацию облаков см. в Атласе облаков (PDF).
T - Температура воздуха - температура, измеренная на высоте 2 м над землей.
Td - Температура точки росы - температура, при понижении до которой содержащийся в воздухе водяной пар достигнет насыщения.
f - Относительная влажность воздуха - влажноcть воздуха, измеренная на высоте 2 м над землей.
Te - Эффективная температура - температура, которую ощущает одетый по сезону человек в тени. Характеристика душности погоды. При расчете учитывается влияние влажности воздуха и скорости ветра на теплоощущения человека.
Tes - Эффективная температура на солнце - температура, которую ощущает человек, с поправкой на солнечный нагрев. Характеристика знойности погоды. Зависит от высоты солнца над горизонтом, облачности и скорости ветра. Ночью, в пасмурную погоду, а также при ветре 12 м/с и более поправка равна нулю.
P - Атмосферное давление - приведенное к уровню моря атмосферное давление.
Po - Атмосферное давление - измеренное на уровне метеостанции атмосферное давление.
Tmin - Минимальная температура - минимум температуры воздуха на высоте 2 м над землей.
Tmax - Максимальная температура - максимум температуры воздуха на высоте 2 м над землей.
R - Количество осадков - Количество выпавших осадков за период времени, мм. При наведении курсора мыши на число - период времени, за который выпало указанное количество осадков.
R24 - Количество осадков - Количество выпавших осадков за 24 часа, мм.
S - Снежный покров - Высота снежного покрова, см. При наведении курсора мыши на число - состояние снежного покрова и степень покрытия местности в баллах.